Weather History for Washington, MO

Change the Weather History Date:

Thursday, December 5, 2013

  Actual Average (KSTL) Record (KSTL)
Temperature  
Mean Temperature 28 °F 38 °F  
Max Temperature 35 °F 46 °F 72 °F (1956)
Min Temperature 21 °F 30 °F 8 °F (1886)
Degree Days  
Heating Degree Days 37 27  
Month to date heating degree days 132  
Since 1 July heating degree days 958  
Cooling Degree Days 0 0  
Month to date cooling degree days 0  
Year to date cooling degree days 1646  
Moisture  
Dew Point 18 °F    
Average Humidity 70    
Maximum Humidity 93    
Minimum Humidity 54    
Precipitation  
Precipitation 1.14 in 0.09 in 1.35 in (2014)
Month to date precipitation 0.51  
Year to date precipitation 38.63  
Snow  
Snow 0.00 in 0.10 in 6.60 in (1977)
Month to date snowfall 0.5  
Since 1 July snowfall 1.2  
Snow Depth -    
Sea Level Pressure  
Sea Level Pressure 30.16 in    
Wind  
Wind Speed 13 mph (NW)    
Max Wind Speed 20 mph    
Max Gust Speed 25 mph    
Visibility 9 miles    
Events Rain , Snow    
T = Trace of Precipitation, MM = Missing Value Source: NWS Daily Summary

Daily Weather History Graph

Daily Weather History Graph

Search for Another Location

Airport:

Trip Planner

Search our weather history database for the weather conditions in past years. The results will help you decide how hot, cold, wet, or windy it might be!

Date:

Astronomy

Dec. 05, 2013 Rise Set
Actual Time 7:06 AM CST 4:42 PM CST
Civil Twilight 6:37 AM CST 5:12 PM CST
Nautical Twilight 6:04 AM CST 5:45 PM CST
Astronomical Twilight 5:32 AM CST 6:17 PM CST
Moon 9:28 AM CST (12/5) 8:02 PM CST (12/5)
Length of Visible Light 10h 34m
Length of Day
9h 35m
Waxing Crescent, 11% of the Moon is Illuminated
Dec 5
Waxing Crescent
Dec 9
First Quarter
Dec 17
Full
Dec 25
Last Quarter
Jan 1
New

Hourly Weather History & Observations

Time (CST) Temp. Windchill Dew Point Humidity Pressure Visibility Wind Dir Wind Speed Gust Speed Precip Events Conditions
12:15 AM 35.6 °F 25.9 °F 30.2 °F 81% 29.90 in 9.0 mi NW 16.1 mph - N/A   Overcast
12:35 AM 35.6 °F 26.2 °F 28.4 °F 75% 29.91 in 10.0 mi NW 15.0 mph 20.7 mph N/A   Overcast
12:55 AM 33.8 °F 23.2 °F 28.4 °F 81% 29.90 in 10.0 mi NW 17.3 mph 23.0 mph N/A   Overcast
1:15 AM 32.0 °F 21.6 °F 28.4 °F 87% 29.92 in 10.0 mi WNW 15.0 mph 19.6 mph N/A   Overcast
1:35 AM 32.0 °F 23.0 °F 26.6 °F 80% 29.92 in 10.0 mi NW 11.5 mph - N/A   Overcast
1:55 AM 32.0 °F 20.5 °F 26.6 °F 80% 29.96 in 10.0 mi WNW 18.4 mph 23.0 mph N/A   Overcast
2:15 AM 32.0 °F 22.1 °F 24.8 °F 75% 29.98 in 10.0 mi WNW 13.8 mph 24.2 mph N/A   Overcast
2:35 AM 32.0 °F 21.2 °F 24.8 °F 75% 29.99 in 10.0 mi WNW 16.1 mph 24.2 mph N/A   Overcast
2:55 AM 32.0 °F 21.2 °F 24.8 °F 75% 29.99 in 10.0 mi NW 16.1 mph 20.7 mph N/A   Overcast
3:15 AM 32.0 °F 20.1 °F 24.8 °F 75% 30.03 in 10.0 mi WNW 19.6 mph 25.3 mph N/A   Overcast
3:35 AM 32.0 °F 22.1 °F 23.0 °F 69% 30.01 in 10.0 mi NW 13.8 mph - N/A   Overcast
3:55 AM 32.0 °F 23.0 °F 23.0 °F 69% 30.02 in 10.0 mi NW 11.5 mph - N/A   Overcast
4:15 AM 30.2 °F 18.5 °F 23.0 °F 75% 30.03 in 10.0 mi NW 17.3 mph 23.0 mph N/A   Overcast
4:35 AM 30.2 °F 19.3 °F 21.2 °F 69% 30.04 in 10.0 mi NW 15.0 mph - N/A   Overcast
4:55 AM 30.2 °F 20.2 °F 21.2 °F 69% 30.04 in 10.0 mi WNW 12.7 mph - N/A   Overcast
5:15 AM 28.4 °F 17.5 °F 19.4 °F 69% 30.07 in 10.0 mi NW 13.8 mph - N/A   Overcast
5:35 AM 28.4 °F 18.5 °F 21.2 °F 74% 30.07 in 8.0 mi NW 11.5 mph 20.7 mph N/A Rain Light Freezing Rain
5:55 AM 28.4 °F 18.5 °F 23.0 °F 80% 30.08 in 10.0 mi NW 11.5 mph - 0.01 in   Overcast
6:15 AM 28.4 °F 17.0 °F 21.2 °F 74% 30.09 in 10.0 mi WNW 15.0 mph - N/A   Overcast
6:35 AM 28.4 °F 17.5 °F 21.2 °F 74% 30.10 in 9.0 mi WNW 13.8 mph 17.3 mph N/A Rain Light Freezing Rain
6:55 AM 26.6 °F 15.2 °F 19.4 °F 74% 30.13 in 9.0 mi WNW 13.8 mph - N/A Rain Light Freezing Rain
7:15 AM 26.6 °F 15.7 °F 21.2 °F 80% 30.13 in 5.0 mi WNW 12.7 mph - N/A Rain Light Freezing Rain
7:35 AM 26.6 °F 16.2 °F 19.4 °F 74% 30.13 in 9.0 mi NW 11.5 mph 19.6 mph 0.01 in Rain Light Freezing Rain
7:55 AM 26.6 °F 15.2 °F 17.6 °F 69% 30.15 in 10.0 mi NW 13.8 mph - 0.01 in   Mostly Cloudy
8:15 AM 26.6 °F 15.7 °F 19.4 °F 74% 30.15 in 10.0 mi NNW 12.7 mph - N/A   Partly Cloudy
8:35 AM 26.6 °F 14.7 °F 17.6 °F 69% 30.16 in 10.0 mi NW 15.0 mph - N/A   Clear
8:55 AM 26.6 °F 15.2 °F 17.6 °F 69% 30.17 in 10.0 mi NNW 13.8 mph - N/A   Partly Cloudy
9:15 AM 26.6 °F 16.2 °F 17.6 °F 69% 30.16 in 10.0 mi NNW 11.5 mph - N/A   Partly Cloudy
9:35 AM 26.6 °F 15.7 °F 17.6 °F 69% 30.18 in 10.0 mi NW 12.7 mph - N/A   Clear
9:55 AM 26.6 °F 15.2 °F 17.6 °F 69% 30.17 in 10.0 mi WNW 13.8 mph 20.7 mph N/A   Partly Cloudy
10:15 AM 26.6 °F 15.7 °F 17.6 °F 69% 30.17 in 10.0 mi NW 12.7 mph - N/A   Clear
10:35 AM 26.6 °F 15.7 °F 15.8 °F 64% 30.19 in 10.0 mi NW 12.7 mph - N/A   Clear
10:55 AM 26.6 °F 15.2 °F 15.8 °F 64% 30.18 in 10.0 mi NNW 13.8 mph - N/A   Clear
11:15 AM 26.6 °F 17.5 °F 14.0 °F 59% 30.18 in 10.0 mi NNW 9.2 mph - N/A   Clear
11:35 AM 26.6 °F 16.8 °F 14.0 °F 59% 30.20 in 10.0 mi NW 10.4 mph - N/A   Clear
11:55 AM 26.6 °F 16.8 °F 14.0 °F 59% 30.19 in 10.0 mi NW 10.4 mph 18.4 mph N/A   Partly Cloudy
12:15 PM 26.6 °F 17.5 °F 14.0 °F 59% 30.17 in 10.0 mi NW 9.2 mph - N/A   Mostly Cloudy
12:35 PM 26.6 °F 16.8 °F 14.0 °F 59% 30.18 in 10.0 mi North 10.4 mph - N/A   Mostly Cloudy
12:55 PM 26.6 °F 16.8 °F 14.0 °F 59% 30.20 in 10.0 mi NW 10.4 mph - N/A   Scattered Clouds
1:15 PM 26.6 °F 16.8 °F 14.0 °F 59% 30.18 in 10.0 mi NNW 10.4 mph - N/A   Partly Cloudy
1:35 PM 26.6 °F 16.8 °F 14.0 °F 59% 30.21 in 10.0 mi NW 10.4 mph - N/A   Partly Cloudy
1:55 PM 26.6 °F 15.7 °F 14.0 °F 59% 30.22 in 10.0 mi WNW 12.7 mph - N/A   Clear
2:15 PM 26.6 °F 15.7 °F 14.0 °F 59% 30.20 in 10.0 mi NW 12.7 mph - N/A   Scattered Clouds
2:35 PM 26.6 °F 16.8 °F 14.0 °F 59% 30.18 in 10.0 mi NNW 10.4 mph - N/A   Scattered Clouds
2:55 PM 26.6 °F 17.5 °F 12.2 °F 55% 30.19 in 10.0 mi NNW 9.2 mph - N/A   Scattered Clouds
3:15 PM 26.6 °F 16.2 °F 12.2 °F 55% 30.21 in 10.0 mi NW 11.5 mph - N/A   Overcast
3:35 PM 26.6 °F 18.2 °F 12.2 °F 55% 30.21 in 10.0 mi NNW 8.1 mph - N/A   Overcast
3:55 PM 26.6 °F 16.8 °F 14.0 °F 59% 30.22 in 10.0 mi NW 10.4 mph - N/A   Overcast
4:15 PM 26.6 °F 16.2 °F 14.0 °F 59% 30.24 in 10.0 mi NNW 11.5 mph - N/A   Overcast
4:35 PM 26.6 °F 16.2 °F 14.0 °F 59% 30.24 in 10.0 mi NNW 11.5 mph - N/A   Overcast
4:55 PM 26.6 °F 19.1 °F 12.2 °F 55% 30.25 in 10.0 mi NNW 6.9 mph - N/A   Overcast
5:15 PM 24.8 °F 14.0 °F 12.2 °F 59% 30.24 in 10.0 mi NNW 11.5 mph - N/A   Overcast
5:35 PM 24.8 °F 14.6 °F 12.2 °F 59% 30.25 in 10.0 mi NNW 10.4 mph - N/A   Overcast
5:55 PM 24.8 °F 15.3 °F 10.4 °F 54% 30.26 in 10.0 mi NW 9.2 mph - N/A   Overcast
6:15 PM 24.8 °F 16.1 °F 12.2 °F 59% 30.24 in 10.0 mi North 8.1 mph - N/A   Overcast
6:35 PM 24.8 °F 15.3 °F 10.4 °F 54% 30.27 in 10.0 mi NNW 9.2 mph - N/A   Overcast
6:55 PM 24.8 °F 15.3 °F 10.4 °F 54% 30.26 in 10.0 mi North 9.2 mph - N/A   Overcast
7:15 PM 24.8 °F 16.1 °F 10.4 °F 54% 30.26 in 8.0 mi North 8.1 mph - N/A   Mostly Cloudy
7:35 PM 23.0 °F 14.7 °F 17.6 °F 80% 30.27 in 1.5 mi NNW 6.9 mph - 0.11 in Snow Light Snow
7:55 PM 23.0 °F 17.0 °F 19.4 °F 86% 30.27 in 1.2 mi NNW 4.6 mph - 0.28 in Snow Light Snow
8:15 PM 23.0 °F - 19.4 °F 86% 30.26 in 2.5 mi Calm Calm - 0.04 in Snow Light Snow
8:35 PM 23.0 °F 15.8 °F 19.4 °F 86% 30.28 in 0.8 mi NW 5.8 mph - 0.32 in Snow Light Snow
8:55 PM 23.0 °F 14.7 °F 19.4 °F 86% 30.30 in 2.0 mi NW 6.9 mph - 0.43 in Snow Light Snow
9:15 PM 21.2 °F 11.7 °F 19.4 °F 93% 30.30 in 1.2 mi NW 8.1 mph - 0.07 in Snow Light Snow
9:35 PM 21.2 °F 12.6 °F 19.4 °F 93% 30.29 in 1.0 mi NNW 6.9 mph - 0.21 in Snow Light Snow
9:55 PM 21.2 °F 12.6 °F 19.4 °F 93% 30.29 in 1.0 mi North 6.9 mph - 0.38 in Snow Light Snow
10:15 PM 21.2 °F 13.6 °F 19.4 °F 93% 30.29 in 2.5 mi North 5.8 mph - 0.02 in Snow Light Snow
10:35 PM 23.0 °F - 19.4 °F 86% 30.28 in 10.0 mi Calm Calm - 0.03 in Snow Light Snow
10:55 PM 23.0 °F - 17.6 °F 80% 30.30 in 10.0 mi Calm Calm - 0.03 in   Overcast
11:15 PM 23.0 °F 18.4 °F 17.6 °F 80% 30.30 in 10.0 mi NW 3.5 mph - N/A   Overcast
11:35 PM 23.0 °F 18.4 °F 17.6 °F 80% 30.30 in 10.0 mi WNW 3.5 mph - N/A   Overcast
11:55 PM 23.0 °F 14.7 °F 15.8 °F 74% 30.29 in 10.0 mi NNW 6.9 mph - N/A   Overcast